Change the Weather History Date:

Saturday, March 1, 2014

  Actual Average Record
Temperature  
Mean Temperature 27 °F -  
Max Temperature 39 °F 47 °F 74 °F (1987)
Min Temperature 17 °F 29 °F 13 °F (1980)
Degree Days  
Heating Degree Days 38    
Moisture  
Dew Point 16 °F    
Average Humidity 54    
Maximum Humidity 72    
Minimum Humidity 33    
Precipitation  
Precipitation 0.00 in - - ()
Sea Level Pressure  
Sea Level Pressure 30.31 in    
Wind  
Wind Speed 5 mph (ESE)    
Max Wind Speed 10 mph    
Max Gust Speed -    
Visibility 10 miles    
Events      
Averages and records for this station are not official NWS values.
T = Trace of Precipitation, MM = Missing Value Source: NWS Daily Summary

Daily Weather History Graph

Daily Weather History Graph

Search for Another Location

Airport or City:

Trip Planner

Search our weather history database for the weather conditions in past years. The results will help you decide how hot, cold, wet, or windy it might be!

Date:

Astronomy

Mar. 01, 2014 Rise Set
Actual Time 6:37 AM EST 5:58 PM EST
Civil Twilight 6:11 AM EST 6:25 PM EST
Nautical Twilight 5:40 AM EST 6:56 PM EST
Astronomical Twilight 5:09 AM EST 7:26 PM EST
Moon 6:30 AM EST (3/1) 6:42 PM EST (3/1)
Length of Visible Light 12h 14m
Length of Day
11h 21m
New Moon, 0% of the Moon is Illuminated
Mar 1
New Moon
Mar 8
First Quarter
Mar 16
Full
Mar 23
Last Quarter
Mar 30
New

Hourly Weather History & Observations

Time (EST) Temp. Windchill Dew Point Humidity Pressure Visibility Wind Dir Wind Speed Gust Speed Precip Events Conditions
12:52 AM 24.1 °F 16.0 °F 7.0 °F 48% 30.40 in 10.0 mi ESE 6.9 mph - N/A   Clear
1:52 AM 25.0 °F 19.3 °F 6.1 °F 45% 30.38 in 10.0 mi ESE 4.6 mph - N/A   Clear
2:52 AM 26.1 °F 19.4 °F 6.1 °F 43% 30.37 in 10.0 mi ESE 5.8 mph - N/A   Clear
3:52 AM 25.0 °F 19.3 °F 10.0 °F 53% 30.36 in 10.0 mi ESE 4.6 mph - N/A   Clear
4:52 AM 23.0 °F - 10.9 °F 60% 30.36 in 10.0 mi Calm Calm - N/A   Partly Cloudy
5:52 AM 17.1 °F - 9.0 °F 71% 30.37 in 10.0 mi Calm Calm - N/A   Clear
6:05 AM 19.0 °F - 10.0 °F 68% 30.37 in 10.0 mi Calm Calm - N/A   Scattered Clouds
6:52 AM 23.0 °F - 15.1 °F 72% 30.37 in 10.0 mi Calm Calm - N/A   Mostly Cloudy
7:52 AM 28.0 °F 22.8 °F 16.0 °F 61% 30.39 in 10.0 mi East 4.6 mph - N/A   Mostly Cloudy
8:52 AM 30.0 °F 25.2 °F 16.0 °F 56% 30.39 in 10.0 mi East 4.6 mph - N/A   Mostly Cloudy
9:52 AM 32.0 °F 27.5 °F 16.0 °F 52% 30.39 in 10.0 mi East 4.6 mph - N/A   Scattered Clouds
10:52 AM 35.1 °F 30.1 °F 12.0 °F 39% 30.38 in 10.0 mi East 5.8 mph - N/A   Scattered Clouds
11:52 AM 34.0 °F 27.2 °F 9.0 °F 35% 30.35 in 10.0 mi East 8.1 mph - N/A   Scattered Clouds
12:52 PM 36.0 °F 29.6 °F 9.0 °F 33% 30.30 in 10.0 mi East 8.1 mph - N/A   Mostly Cloudy
1:52 PM 37.0 °F 31.6 °F 10.0 °F 33% 30.27 in 10.0 mi ESE 6.9 mph - N/A   Scattered Clouds
2:52 PM 37.0 °F 29.8 °F 18.0 °F 46% 30.24 in 10.0 mi SE 10.4 mph - N/A   Mostly Cloudy
3:52 PM 37.9 °F 30.9 °F 19.0 °F 47% 30.24 in 10.0 mi SE 10.4 mph - N/A   Mostly Cloudy
4:52 PM 37.0 °F 29.8 °F 23.0 °F 57% 30.23 in 10.0 mi SE 10.4 mph - N/A   Mostly Cloudy
5:52 PM 37.0 °F 29.8 °F 21.9 °F 54% 30.23 in 10.0 mi SE 10.4 mph - N/A   Mostly Cloudy
6:52 PM 37.0 °F 31.0 °F 24.1 °F 59% 30.23 in 10.0 mi SSE 8.1 mph - N/A   Overcast
7:52 PM 37.0 °F 33.3 °F 21.9 °F 54% 30.23 in 10.0 mi SSE 4.6 mph - N/A   Overcast
8:52 PM 37.0 °F - 24.1 °F 59% 30.24 in 10.0 mi Calm Calm - N/A   Overcast
9:52 PM 37.0 °F 34.5 °F 25.0 °F 62% 30.22 in 10.0 mi SSE 3.5 mph - N/A   Overcast
10:52 PM 37.0 °F 33.3 °F 27.0 °F 67% 30.19 in 10.0 mi SSE 4.6 mph - N/A   Overcast
11:52 PM 39.0 °F - 28.0 °F 65% 30.19 in 10.0 mi Calm Calm - N/A   Overcast